Погода Ханты-Мансийск

Погода Ханты-Мансийск : погода сейчас, прогноз погоды и архив. Всё, что Вы хотите узнать о погоде Ханты-Мансийск!

Хотите узнать прогноз погоды Ханты-Мансийск? Тогда Вам сюда: Погода Ханты-Мансийск

Поиск расширенной информации на нашем сайте:

Другие новости

Новости СМИ2

Главная страница сайта

Новости сайта

03.07.2017

Напоминаем, что на нашем специализированном сайте Метеоцентр.Азия вы можете получить высокодетализированные автоматические прогнозы погоды по пунктам России, СНГ и мира в авиационном формате (включающие направление и скорость ветра, видимость, явления погоды, количество и форму облачности, нижнюю и верхнюю границу облачности).


Погода Ханты-Мансийск - сегодня

Время (UTC), дата Ветер
(°,м/с) 
Видим.   Явления Облачность Т
(°С)
Тd
(°С)
f(%) Тe
(°С)
Pmin
(гПа)
dP
(гПа)
Po
(мм)
O2
(г/м3)
Тmin Tmax R s Состояние
почвы
09 22.11.17 150 (ЮВ) 10 км    8/0 средняя 
[Ac trans]
-4.2 -6.2 86 -5  1020.6  0.1  761  312           
12 22.11.17 160 (Ю) 10 км    3/0 средняя 
[Ac trans]
-5.5 -7 89 -7  1021  0.3  761  314           
15 22.11.17 160 (Ю) 10 км  [диам. изморози <0.1 мм]  ясно 
-7.2 -8.3 92 -9  1021.1  0.1  761  316    +0.1       
18 22.11.17 160 (Ю) 10 км  [диам. изморози 0.1 мм]  ясно 
-9 -9.8 94 -9  1021.5  0.3  762  318           
21 22.11.17 160 (Ю) 10 км  ледяные иглы{снег} [диам. изморози 0.3 мм]  ясно 
-10.1 -11 93 -10  1021.5  0.2  762  320           
00 23.11.17 150 (ЮВ) 10 км  {снег} [диам. изморози 0.4 мм]  ясно 
-11.5 -12.9 89 -11  1020.5  -1.1  761  321           
03 23.11.17 130 (ЮВ) 10 км  [диам. изморози 1 мм]  ясно 
-12.1 -13.4 90 -12  1021.1  0.6  761  322  -12.4    0.0  10  равномерный
сухой снег
100% 
06 23.11.17 140 (ЮВ) 10 км  [диам. изморози 1 мм]  6/3 600 м верхняя 
[Sc|Cc]
-10.3 -11.5 91 -10  1020.6  -0.4  761  320           
09 23.11.17 170 (Ю) 10 км  [диам. изморози 1 мм]  10/8 600 м средняя, верхняя 
[Sc|Ac As|Cs]
-7.1 -8.1 93 -7  1019.8  -0.8  761  315           
12 23.11.17 160 (Ю) 10 км  [диам. изморози 1 мм]  10/5 600 м средняя, верхняя 
[Sc|Ac As|Cs]
-6.4 -7.2 94 -8  1019.7  761  315           
15 23.11.17 170 (Ю) 10 км  [диам. изморози 1 мм]  4/0 средняя 
[Ac trans]
-6.3 -7.1 94 -6  1019  -0.8  760  314    -5.9       
18 23.11.17 180 (Ю) 10 км  [диам. изморози 1 мм]  ясно 
-5.7 -6.6 93 -7  1017.8  -1.2  759  313           
21 23.11.17 150 (ЮВ) 10 км  [диам. изморози 1 мм]  6/0 средняя 
[Ac trans]
-6.2 -7.5 90 -9  1016.6  -1.1  758  313           
00 24.11.17 190 (Ю) 10 км  [диам. изморози 0.4 мм]  ясно 
-4.9 -6.9 86 -7  1015.1  -1.5  757  311           
03 24.11.17 180 (Ю) 10 км  [диам. изморози <0.1 мм]  4/0 средняя 
[As trans]
-4.3 -6.6 84 -7  1013.3  -1.8  756  310  -6.8      10  равномерный
сухой снег
100% 
06 24.11.17 180 (Ю) 10 км  [диам. изморози 0 мм]  10/0 средняя, верхняя 
[Ac As|Cc]
-3.6 -6.4 81 -5  1011.7  -1.5  755  309           
09 24.11.17 250 (З) 10 км    10/0 средняя, верхняя 
[As op|Cs]
-2.7 -5.2 83 -4  1011.9  0.3  755  308           
12 24.11.17 270 (З) 10 км    9/3 1000 м средняя 
[Sc|Ac lent]
-4.1 -5.7 89 -6  1013.2  1.2  756  310           
15 24.11.17 290 (З) 10 км    ясно 
-7.2 -8.4 91 -10  1014.3  756  314    -2.5       
18 24.11.17 290 (З) 10 км    ясно 
-9.6 -11.8 84 -11  1015.4  1.1  757  317           
21 24.11.17 290 (З) 10 км  [диам. изморози 0.5 мм]  ясно 
-11.1 -13.6 82 -14  1016.4  0.9  758  320           
00 25.11.17 290 (З) 3{10}  10 км  [диам. изморози 0.6 мм]  ясно 
-12.7 -14.9 84 -16  1016.7  0.3  758  322           
03 25.11.17 290 (З) 10 км  [диам. изморози 0.3 мм]  ясно 
-13.3 -15.4 84 -17  1017.9  1.2  759  323  -14.2      10  равномерный
сухой снег
100% 
06 25.11.17 330 (СЗ) 3{10}  10 км    4/0 верхняя 
[Cs]
-12.1 -15.5 76 -15  1020.6  2.7  761  322           
09 25.11.17 330 (СЗ) 10 км    3/0 верхняя 
[Cs]
-12.3 -16.8 69 -14  1023.6  763  323           
Время (UTC), дата Ветер
(°,м/с) 
Видим.   Явления Облачность Т
(°С)
Тd
(°С)
f(%) Тe
(°С)
Pmin
(гПа)
dP
(гПа)
Po
(мм)
O2
(г/м3)
Тmin Tmax R s Состояние
почвы

Для получения пояснительной информации подведите курсор к названию столбца.

ПОГОДА Ханты-Мансийск - архив

Всё, что Вы хотите узнать о погоде Ханты-Мансийск - удобно и подробно!

Выберите нужную дату (начиная с 1 января 2015* года) и нажмите кнопку "Найти".
Будут отображены архивные сводки погоды по пункту Ханты-Мансийск, начиная с указанной даты.


Отображать данные в формате CSV (для использования в таблицах Excel)


Внимание! Наш архив погоды предназначен исключительно для личного некоммерческого использования в познавательных целях. Если Вам необходимы официальные справки о состоянии погоды (для производственных, юридических, коммерческих и т.п. целей), обращайтесь в органы Росгидромета.

*Примечание: данная дата относится к архиву по метеостанциям СССР (Россия, СНГ, Балтия).
Архив по метеостанциям Зарубежной Европы и Азии (кроме Китая) хранится 10 дней, по другим регионам земного шара (Китай, Африка, Америка, Австралия, Океания) - 1 день.

Ханты-Мансийск - район местоположения метеостанции


Название, широта, долгота, высота метеостанции:
Ханты-Мансийск 61°ш. 69°д. 46 м над ур. моря [Российская Федерация]

Дополнительная информация

В oтличие oт бoльшинства пoгoдных сайтoв мы публикуем пoдрoбную метеoинфoрмацию в детальнoм прoфессиoнальнoм фoрмате.

Характеристики температуры и влажнoсти вoздуха измеряются на высoте 2 м в тени вдали oт зданий и деревьев.
Скoрoсть ветра измеряется на высoте 10 м (на урoвне рoста челoвека скoрoсть ветра ниже в 1.5-2 раза). Если метеoстанция нахoдится в гoрoде или в лесу, тo скoрoсть ветра занижена на 2-4 м/с пo сравнению с oткрытым местoм. Скoрoсть ветра над акватoриями крупных рек и oзёр, а также на вершинах хoлмoв на 2-5 м/с выше, чем в oбычных услoвиях.
Атмoсфернoе давление в разных тoчках местнoсти мoжет значительнo oтличаться oт давления на метеoстанции, в зависимoсти oт услoвий рельефа (при пoдъёме на 10 м давление пoнижается примернo на 1 мм рт.ст.).